Regional Weather Roundup
Issued by NWS

Home | Current Version | Previous Version | Graphics & Text | Print | Product List | Glossary On
Versions: 1 2 3 4 5 6 7 8 9 10 11 12 13 14 15 16 17 18 19 20 21 22 23 24 25 26 27 28 29 30 31 32 33 34 35 36 37 38 39 40 41 42 43 44 45 46 47 48 49 50
000
ASUS45 KABQ 230910
RWRNM
NEW MEXICO REGIONAL WEATHER ROUNDUP
NATIONAL WEATHER SERVICE ALBUQUERQUE NM
300 AM MDT SUN APR 23 2017

NOTE: "FAIR" MEANS FEW OR NO CLOUDS BELOW 12,000 FEET AGL WITH NO
       SIGNIFICANT WEATHER OR OBSTRUCTIONS TO VISION.

      THIS PRODUCT IS RELEASED AS TWO VERSIONS.  ONE VERSION NEAR
      THE TOP OF THE HOUR CONTAINING PRELIMINARY DATA FROM ALBUQUERQUE
      AND OTHER STATIONS.  A FINAL VERSION WITH ADDITIONAL DATA IS
      ISSUED ABOUT 10 MINUTES AFTER THE HOUR.

NMZ501-503-504-510>518-231000-
NORTHWEST PLATEAU/NORTHCENTRAL MOUNTAINS

CITY           SKY/WX    TMP DP  RH WIND       PRES   REMARKS
FARMINGTON     FAIR      41  20  43 E9        30.13F
LOS ALAMOS     FAIR      39  28  65 SW9       30.30F WCI  33
SANTA FE       FAIR      39  29  67 S13       30.27F WCI  31
TAOS             N/A     32  19  59 CALM      30.28S
ANGEL FIRE     FAIR      29  26  88 SE10      30.29F WCI  20

$$
NMZ402-403-502-505>509-231000-
WESTCENTRAL MOUNTAINS/SOUTHWEST MOUNTAINS

CITY           SKY/WX    TMP DP  RH WIND       PRES   REMARKS
GALLUP         FAIR      35  16  45 CALM      30.16F
GRANTS         FAIR      44  29  55 S16G23    30.22F
SILVER CITY    FAIR      47  32  55 SE6       30.19F

$$
NMZ407-409-411-412-231000-
SOUTHERN DESERTS

CITY           SKY/WX    TMP DP  RH WIND       PRES   REMARKS
DEMING         FAIR      54  34  46 SE6       30.17R
LAS CRUCES     FAIR      55  33  42 SE17G26   30.18S
HOLLOMAN AFB   FAIR      49  31  50 NE7       30.21S
ALAMOGORDO     FAIR      54  32  43 N9        30.19S
T OR C         FAIR      55  30  38 CALM      30.18S

$$
NMZ519>523-231000-
CENTRAL VALLEYS/CENTRAL HIGHLANDS

CITY           SKY/WX    TMP DP  RH WIND       PRES   REMARKS
ALBUQUERQUE    FAIR      48  28  46 E18       30.22F
MORIARTY ARPT  FAIR      31  26  81 CALM      30.31F
CLINES CORNERS FAIR      32  25  75 SE9       30.30F WCI  24
BELEN          FAIR      45  28  52 NW6       30.22S
SOCORRO        FAIR      50  28  43 E5        30.21S

$$
NMZ524>526-539-540-231000-
SOUTHCENTRAL MOUNTAINS

CITY           SKY/WX    TMP DP  RH WIND       PRES   REMARKS
RUIDOSO        FAIR      36  28  75 SE6       30.33F WCI  31

$$
NMZ527>531-231000-
NORTHEAST HIGHLANDS/NORTHEAST PLAINS

CITY           SKY/WX    TMP DP  RH WIND       PRES   REMARKS
LAS VEGAS      FAIR      30  27  88 S7        30.29F WCI  23
RATON          FAIR      30  26  85 N5        30.25F WCI  25
CLAYTON        FAIR      36  29  75 SW8       30.25F WCI  30

$$
NMZ532>537-231000-
EASTCENTRAL PLAINS

CITY           SKY/WX    TMP DP  RH WIND       PRES   REMARKS
SANTA ROSA     FAIR      37  28  70 CALM      30.27F
TUCUMCARI      FAIR      41  29  62 CALM      30.25F
CANNON AFB     FAIR      40  32  72 E7        30.27F
CLOVIS AIRPORT FAIR      37  27  65 NE5       30.27F WCI  34

$$
NMZ028-029-538-231000-
SOUTHEAST PLAINS

CITY           SKY/WX    TMP DP  RH WIND       PRES   REMARKS
ROSWELL        FAIR      48  33  56 SW7         N/A
ARTESIA        FAIR      48  32  53 S5        30.28S
CARLSBAD       FAIR      48  35  60 S5        30.26S
HOBBS          FAIR      43  32  65 NE3       30.28F


$$



USA.gov is the U.S. government's official web portal to all federal, state and local government web resources and services.